TimeEST,TemperatureF,Dew PointF,Humidity,Sea Level PressureIn,VisibilityMPH,Wind Direction,Wind SpeedMPH,Gust SpeedMPH,PrecipitationIn,Events,Conditions,WindDirDegrees,DateUTC
12:53 AM,63.0,59.0,87,30.16,10.0,Calm,Calm,-,N/A,,Partly Cloudy,0,2012-01-02 05:53:00
1:53 AM,62.1,57.9,86,30.14,10.0,Calm,Calm,-,N/A,,Partly Cloudy,0,2012-01-02 06:53:00
2:53 AM,61.0,57.9,90,30.12,10.0,Calm,Calm,-,N/A,,Clear,0,2012-01-02 07:53:00
3:53 AM,57.9,55.9,93,30.11,10.0,West,3.5,-,N/A,,Partly Cloudy,260,2012-01-02 08:53:00
4:53 AM,59.0,57.0,93,30.11,10.0,Calm,Calm,-,N/A,,Clear,0,2012-01-02 09:53:00
5:53 AM,57.9,55.9,93,30.12,10.0,Calm,Calm,-,N/A,,Clear,0,2012-01-02 10:53:00
6:53 AM,57.0,55.0,93,30.13,10.0,Calm,Calm,-,N/A,,Scattered Clouds,0,2012-01-02 11:53:00
7:53 AM,57.9,57.0,97,30.14,10.0,Calm,Calm,-,N/A,,Scattered Clouds,0,2012-01-02 12:53:00
8:53 AM,64.9,62.1,90,30.15,10.0,WNW,4.6,-,N/A,,Scattered Clouds,300,2012-01-02 13:53:00
9:53 AM,71.1,61.0,70,30.15,10.0,NW,8.1,-,N/A,,Mostly Cloudy,320,2012-01-02 14:53:00
10:53 AM,73.4,60.8,65,30.14,10.0,West,12.7,-,N/A,,Mostly Cloudy,270,2012-01-02 15:53:00
11:53 AM,75.2,60.8,61,30.11,10.0,West,9.2,-,N/A,,Mostly Cloudy,280,2012-01-02 16:53:00
12:53 PM,77.0,59.0,54,30.09,10.0,West,11.5,-,N/A,,Mostly Cloudy,280,2012-01-02 17:53:00
1:53 PM,77.0,59.0,54,30.06,10.0,NW,11.5,-,N/A,,Mostly Cloudy,310,2012-01-02 18:53:00
2:53 PM,73.9,62.1,66,30.05,10.0,WNW,15.0,-,0.00,,Overcast,300,2012-01-02 19:53:00
3:53 PM,71.1,64.0,78,30.06,10.0,WNW,9.2,-,N/A,,Mostly Cloudy,290,2012-01-02 20:53:00
4:53 PM,70.0,62.1,76,30.07,10.0,WNW,10.4,-,N/A,,Mostly Cloudy,290,2012-01-02 21:53:00
5:53 PM,68.0,59.0,73,30.10,10.0,WNW,11.5,-,N/A,,Mostly Cloudy,300,2012-01-02 22:53:00
6:53 PM,66.0,55.0,68,30.13,10.0,NW,10.4,-,N/A,,Mostly Cloudy,310,2012-01-02 23:53:00
7:53 PM,64.0,48.9,58,30.14,10.0,NW,16.1,-,N/A,,Scattered Clouds,320,2012-01-03 00:53:00
8:53 PM,61.0,42.1,50,30.17,10.0,NW,17.3,-,N/A,,Scattered Clouds,310,2012-01-03 01:53:00
9:53 PM,57.0,28.9,34,30.18,10.0,WNW,23.0,28.8,N/A,,Partly Cloudy,300,2012-01-03 02:53:00
10:53 PM,53.1,34.0,48,30.19,10.0,WNW,12.7,-,N/A,,Partly Cloudy,300,2012-01-03 03:53:00
11:53 PM,52.0,37.9,59,30.18,10.0,NW,12.7,-,N/A,,Mostly Cloudy,310,2012-01-03 04:53:00